Location: Giessen
(50.5800°N, 8.7028°E)
Time: 10:09:09
(UTC+01:00)

ISS - Visible Passes

Search period start: 21 February 2018 00:00
Search period end: 03 March 2018 00:00
Orbit: 402 x 407 km, 51.6° (Epoch: 21 February)

Date Brightness Start Highest point End Pass type
(mag) Time Alt. Az. Time Alt. Az. Time Alt. Az.
26 Feb -0.7 06:25:36 10° SSE 06:26:54 12° SE 06:28:12 10° ESE visible
28 Feb -1.5 06:15:50 10° SSW 06:18:26 22° SE 06:21:03 10° E visible
01 Mar -1.0 05:24:31 10° S 05:26:20 14° SE 05:28:09 10° ESE visible
02 Mar -2.6 06:06:57 10° SW 06:10:01 38° SSE 06:13:06 10° E visible
